Knox, IN

2:27 AM CDT on October 01, 2016 (GMT -0500)
Starke County

Weather History for KOXI - July, 2013

Change the Weather History Date:

Friday, July 19, 2013

  Actual Average (KVPZ) Record (KVPZ)
Temperature  
Mean Temperature 83 °F 73 °F  
Max Temperature 92 °F 83 °F 95 °F (2013)
Min Temperature 74 °F 62 °F 50 °F (2014)
Degree Days  
Heating Degree Days 0 0  
Month to date heating degree days 0  
Since 1 June heating degree days 41  
Since 1 July heating degree days 0  
Cooling Degree Days 18 8  
Month to date cooling degree days 152  
Year to date cooling degree days 363  
Since 1 June cooling degree days 316  
Growing Degree Days 33 (Base 50)    
Moisture  
Dew Point 74 °F    
Average Humidity 75    
Maximum Humidity 98    
Minimum Humidity 52    
Precipitation  
Precipitation 0.00 in 0.15 in 1.16 in (2012)
Month to date precipitation 2.77  
Year to date precipitation 19.66  
Sea Level Pressure  
Sea Level Pressure 29.89 in    
Wind  
Wind Speed 8 mph (SW)    
Max Wind Speed 17 mph    
Max Gust Speed 24 mph    
Visibility 10 miles    
Events      
T = Trace of Precipitation, MM = Missing Value Source: NWS Daily Summary

Daily Weather History Graph

Daily Weather History Graph

Search for Another Location

Airport or City:

Trip Planner

Search our weather history database for the weather conditions in past years. The results will help you decide how hot, cold, wet, or windy it might be!

Date:

Astronomy

Jul. 19, 2013 Rise Set
Actual Time 5:29 AM CDT 8:15 PM CDT
Civil Twilight 4:57 AM CDT 8:47 PM CDT
Nautical Twilight 4:16 AM CDT 9:28 PM CDT
Astronomical Twilight 3:30 AM CDT 10:14 PM CDT
Moon 5:17 PM CDT (7/19) 2:10 AM CDT (7/19)
Length of Visible Light 15h 50m
Length of Day
14h 45m
Waxing Gibbous, 87% of the Moon is Illuminated
Jul 19
Waxing Gibbous
Jul 22
Full
Jul 29
Last Quarter
Aug 6
New
Aug 14
First Quarter

Hourly Weather History & Observations

Time (CDT) Temp. Heat Index Dew Point Humidity Pressure Visibility Wind Dir Wind Speed Gust Speed Precip Events Conditions
12:15 AM 77.0 °F - 75.6 °F 95% 30.00 in 10.0 mi SSW 5.8 mph - N/A   Clear
12:35 AM 77.2 °F - 75.6 °F 95% 30.00 in 10.0 mi SSW 6.9 mph - N/A   Clear
12:55 AM 76.6 °F - 75.2 °F 95% 29.99 in 10.0 mi SSW 6.9 mph - N/A   Clear
1:15 AM 76.3 °F - 75.0 °F 96% 29.98 in 10.0 mi SSW 5.8 mph - N/A   Clear
1:35 AM 75.9 °F - 74.7 °F 96% 29.98 in 10.0 mi SW 4.6 mph - N/A   Clear
1:55 AM 75.4 °F - 74.5 °F 97% 29.98 in 10.0 mi SW 3.5 mph - N/A   Clear
2:15 AM 75.2 °F - 74.3 °F 97% 29.97 in 10.0 mi Calm Calm - N/A   Clear
2:35 AM 74.8 °F - 74.1 °F 98% 29.96 in 7.0 mi SSW 4.6 mph - N/A   Clear
2:55 AM 74.8 °F - 74.1 °F 98% 29.96 in 7.0 mi SW 3.5 mph - N/A   Clear
3:15 AM 75.2 °F - 74.3 °F 97% 29.95 in 7.0 mi SSW 4.6 mph - N/A   Clear
3:35 AM 75.0 °F - 74.3 °F 98% 29.95 in 7.0 mi SW 5.8 mph - N/A   Clear
3:55 AM 75.0 °F - 74.3 °F 98% 29.95 in 7.0 mi SW 4.6 mph - N/A   Clear
4:15 AM 74.5 °F - 73.9 °F 98% 29.95 in 7.0 mi SSW 4.6 mph - N/A   Clear
4:35 AM 74.7 °F - 74.1 °F 98% 29.94 in 7.0 mi SW 4.6 mph - N/A   Clear
4:55 AM 74.8 °F - 74.3 °F 98% 29.94 in 7.0 mi SW 5.8 mph - N/A   Clear
5:15 AM 74.8 °F - 74.1 °F 98% 29.94 in 7.0 mi SW 5.8 mph - N/A   Clear
5:35 AM 74.5 °F - 73.8 °F 98% 29.95 in 7.0 mi SW 4.6 mph - N/A   Clear
5:55 AM 74.7 °F - 73.8 °F 97% 29.95 in 7.0 mi SSW 5.8 mph - N/A   Clear
6:15 AM 74.5 °F - 73.8 °F 98% 29.95 in 7.0 mi SSW 4.6 mph - N/A   Clear
6:35 AM 75.0 °F - 73.9 °F 96% 29.95 in 7.0 mi SW 4.6 mph - N/A   Clear
6:55 AM 75.7 °F - 74.3 °F 95% 29.95 in 10.0 mi SSW 6.9 mph - N/A   Clear
7:15 AM 77.0 °F - 74.5 °F 92% 29.94 in 10.0 mi SW 8.1 mph - N/A   Clear
7:35 AM 78.3 °F - 74.8 °F 89% 29.94 in 10.0 mi SW 9.2 mph - N/A   Clear
7:55 AM 79.5 °F - 75.4 °F 87% 29.95 in 10.0 mi SW 6.9 mph - N/A   Clear
8:15 AM 80.6 °F 86.2 °F 75.2 °F 84% 29.95 in 10.0 mi SW 9.2 mph - N/A   Clear
8:35 AM 81.5 °F 88.0 °F 75.4 °F 82% 29.96 in 10.0 mi WSW 9.2 mph - N/A   Clear
8:55 AM 82.4 °F 89.8 °F 75.6 °F 80% 29.96 in 10.0 mi SW 12.7 mph - N/A   Clear
9:15 AM 83.3 °F 91.1 °F 75.4 °F 77% 29.96 in 10.0 mi WSW 10.4 mph - N/A   Mostly Cloudy
9:35 AM 83.7 °F 92.0 °F 75.7 °F 77% 29.95 in 10.0 mi WSW 10.4 mph - N/A   Scattered Clouds
9:55 AM 84.7 °F 94.0 °F 75.9 °F 75% 29.95 in 10.0 mi WSW 11.5 mph 20.7 mph N/A   Clear
10:15 AM 86.0 °F 95.1 °F 75.2 °F 70% 29.95 in 10.0 mi WSW 12.7 mph 17.3 mph N/A   Clear
10:35 AM 86.7 °F 95.9 °F 75.2 °F 68% 29.95 in 10.0 mi SW 13.8 mph 17.3 mph N/A   Clear
10:55 AM 87.4 °F 96.2 °F 74.5 °F 65% 29.94 in 10.0 mi WSW 12.7 mph 18.4 mph N/A   Clear
11:15 AM 88.5 °F 97.3 °F 73.9 °F 62% 29.93 in 10.0 mi SW 11.5 mph 18.4 mph N/A   Clear
11:35 AM 89.4 °F 98.3 °F 73.9 °F 60% 29.92 in 10.0 mi WSW 15.0 mph 19.6 mph N/A   Clear
11:55 AM 89.8 °F 98.6 °F 73.6 °F 59% 29.92 in 10.0 mi SW 17.3 mph 21.9 mph N/A   Clear
12:15 PM 90.3 °F 98.7 °F 73.4 °F 57% 29.91 in 10.0 mi WSW 10.4 mph 21.9 mph N/A   Clear
12:35 PM 90.9 °F 98.9 °F 72.5 °F 55% 29.90 in 10.0 mi SW 13.8 mph 20.7 mph N/A   Clear
12:55 PM 91.0 °F 99.3 °F 73.0 °F 55% 29.90 in 10.0 mi SW 13.8 mph 19.6 mph N/A   Clear
1:15 PM 91.2 °F 99.7 °F 73.2 °F 55% 29.89 in 10.0 mi SW 12.7 mph 19.6 mph N/A   Scattered Clouds
1:35 PM 91.6 °F 99.9 °F 72.7 °F 54% 29.88 in 10.0 mi SW 15.0 mph 21.9 mph N/A   Scattered Clouds
1:55 PM 91.9 °F 100.1 °F 72.5 °F 53% 29.87 in 10.0 mi WSW 13.8 mph - N/A   Scattered Clouds
2:15 PM 92.1 °F 100.5 °F 72.9 °F 53% 29.86 in 10.0 mi WSW 15.0 mph 24.2 mph N/A   Scattered Clouds
2:35 PM 91.8 °F 99.1 °F 72.1 °F 52% 29.85 in 10.0 mi SW 12.7 mph 19.6 mph N/A   Mostly Cloudy
2:55 PM 92.7 °F 101.7 °F 73.0 °F 53% 29.85 in 10.0 mi SW 12.7 mph 21.9 mph N/A   Scattered Clouds
3:15 PM 90.5 °F 98.6 °F 72.9 °F 56% 29.85 in 10.0 mi SW 12.7 mph - N/A   Mostly Cloudy
3:35 PM 89.6 °F 97.7 °F 73.0 °F 58% 29.84 in 10.0 mi WSW 11.5 mph - N/A   Scattered Clouds
3:55 PM 90.9 °F 100.0 °F 73.6 °F 57% 29.83 in 10.0 mi WSW 9.2 mph - N/A   Scattered Clouds
4:15 PM 91.9 °F 100.1 °F 72.7 °F 53% 29.82 in 10.0 mi WSW 11.5 mph 19.6 mph N/A   Clear
4:35 PM 91.6 °F 98.8 °F 71.4 °F 52% 29.82 in 10.0 mi SW 16.1 mph 20.7 mph N/A   Scattered Clouds
4:55 PM 91.2 °F 98.5 °F 72.1 °F 53% 29.82 in 10.0 mi WSW 9.2 mph 17.3 mph N/A   Scattered Clouds
5:15 PM 91.0 °F 98.2 °F 72.0 °F 53% 29.81 in 10.0 mi WSW 11.5 mph 17.3 mph N/A   Scattered Clouds
5:35 PM 90.7 °F 97.4 °F 71.4 °F 53% 29.81 in 10.0 mi WSW 12.7 mph 16.1 mph N/A   Scattered Clouds
5:55 PM 90.5 °F 97.0 °F 71.2 °F 53% 29.80 in 10.0 mi SW 12.7 mph 18.4 mph N/A   Scattered Clouds
6:15 PM 90.1 °F 95.8 °F 70.5 °F 52% 29.80 in 10.0 mi WSW 12.7 mph 18.4 mph N/A   Scattered Clouds
6:35 PM 89.4 °F 95.3 °F 70.5 °F 54% 29.80 in 10.0 mi WSW 11.5 mph 19.6 mph N/A   Scattered Clouds
6:55 PM 88.3 °F 94.1 °F 71.1 °F 56% 29.80 in 10.0 mi SW 9.2 mph - N/A   Scattered Clouds
7:15 PM 87.3 °F 93.6 °F 71.8 °F 60% 29.81 in 10.0 mi SW 8.1 mph - N/A   Scattered Clouds
7:35 PM 86.2 °F 92.6 °F 72.1 °F 63% 29.81 in 10.0 mi SW 6.9 mph - N/A   Scattered Clouds
7:55 PM 85.5 °F 91.5 °F 72.1 °F 64% 29.81 in 10.0 mi SW 6.9 mph - N/A   Clear
8:15 PM 85.1 °F 90.8 °F 71.8 °F 64% 29.81 in 10.0 mi SW 8.1 mph - N/A   Clear
8:35 PM 84.6 °F 90.0 °F 71.6 °F 65% 29.81 in 10.0 mi SW 8.1 mph - N/A   Clear
8:55 PM 83.8 °F 89.2 °F 72.0 °F 67% 29.81 in 10.0 mi SW 9.2 mph - N/A   Clear
9:15 PM 83.3 °F 89.0 °F 72.5 °F 70% 29.82 in 10.0 mi SW 6.9 mph - N/A   Mostly Cloudy
9:35 PM 82.9 °F 88.5 °F 72.7 °F 71% 29.82 in 10.0 mi SSW 6.9 mph - N/A   Scattered Clouds
9:55 PM 81.9 °F 87.0 °F 72.9 °F 74% 29.82 in 10.0 mi SSW 8.1 mph - N/A   Clear
10:15 PM 81.1 °F 86.2 °F 73.2 °F 77% 29.83 in 10.0 mi SW 8.1 mph - N/A   Clear
10:35 PM 81.0 °F 86.0 °F 73.6 °F 78% 29.83 in 10.0 mi SW 9.2 mph - N/A   Clear
10:55 PM 81.0 °F 86.5 °F 74.5 °F 81% 29.83 in 10.0 mi SW 10.4 mph - N/A   Clear
11:15 PM 81.1 °F 87.2 °F 75.2 °F 82% 29.82 in 10.0 mi SW 10.4 mph 16.1 mph N/A   Clear
11:35 PM 80.8 °F 86.7 °F 75.6 °F 84% 29.81 in 10.0 mi SW 10.4 mph 17.3 mph N/A   Clear
11:55 PM 80.8 °F 86.7 °F 75.6 °F 84% 29.80 in 10.0 mi SW 11.5 mph - N/A   Clear